This is the latest recevied weather packets stored in our database for station/object N4DWK. If no packets are shown the sender has not sent any weather packets the latest 10 day(s).
| Time | Temp. | Humidity | Pressure | Rain* | Wind** | Luminosity | Snow |
|---|---|---|---|---|---|---|---|
| 1788470405 | 36.11° C | 55% | 1013.6 hPa | 0 mm | - | 79 W/m² | - |
| 1788470104 | 36.67° C | 55% | 1013.6 hPa | 0 mm | - | 77 W/m² | - |
| 1788469805 | 36.67° C | 58% | 1013.8 hPa | 0 mm | - | 271 W/m² | - |
| 1788469505 | 36.67° C | 57% | 1013.9 hPa | 0 mm | - | 297 W/m² | - |
| 1788469204 | 36.67° C | 58% | 1013.9 hPa | 0 mm | - | 267 W/m² | - |
| 1788468905 | 36.11° C | 54% | 1013.8 hPa | 0 mm | - | 207 W/m² | - |
| 1788468604 | 36.11° C | 57% | 1013.9 hPa | 0 mm | - | 169 W/m² | - |
| 1788468304 | 36.11° C | 56% | 1013.9 hPa | 0 mm | - | 302 W/m² | - |
| 1788468005 | 36.11° C | 55% | 1014 hPa | 0 mm | - | 223 W/m² | - |
| 1788467705 | 36.67° C | 54% | 1014 hPa | 0 mm | - | 343 W/m² | - |
| 1788467404 | 36.67° C | 55% | 1014 hPa | 0 mm | - | 309 W/m² | - |
| 1788467104 | 36.11° C | 55% | 1014.1 hPa | 0 mm | - | 320 W/m² | - |
| 1788466806 | 36.67° C | 55% | 1014.1 hPa | 0 mm | - | 327 W/m² | - |
| 1788466505 | 37.22° C | 56% | 1014.2 hPa | 0 mm | - | 330 W/m² | - |
| 1788466205 | 36.67° C | 58% | 1014.3 hPa | 0 mm | - | 350 W/m² | - |
| 1788465904 | 36.11° C | 60% | 1014.3 hPa | 0 mm | - | 330 W/m² | - |
| 1788465619 | 36.11° C | 59% | 1014.5 hPa | 0 mm | - | 316 W/m² | - |
| 1788465304 | 36.67° C | 56% | 1014.6 hPa | 0 mm | - | 366 W/m² | - |
| 1788465004 | 36.67° C | 57% | 1014.6 hPa | 0 mm | - | 338 W/m² | - |
| 1788464705 | 36.11° C | 57% | 1014.7 hPa | 0 mm | - | 322 W/m² | - |
| 1788464405 | 36.11° C | 59% | 1014.7 hPa | 0 mm | - | 397 W/m² | - |
| 1788464106 | 36.11° C | 58% | 1014.7 hPa | 0 mm | - | 352 W/m² | - |
| 1788463805 | 36.67° C | 56% | 1014.8 hPa | 0 mm | - | 227 W/m² | - |
| 1788463504 | 37.22° C | 58% | 1014.8 hPa | 0 mm | - | 330 W/m² | - |
| 1788463206 | 37.22° C | 58% | 1014.9 hPa | 0 mm | - | 438 W/m² | - |
* Rain latest hour (hover to see other rain measurements)
** Current wind speed in m/s (hover to see current wind gust speed)